Miscellaneous Local Product
Issued by NWS North Platte, NE

Home | Current Version | Previous Version | Text Only | Print | Product List | Glossary On
Versions: 1 2 3 4 5 6 7 8 9 10 11 12 13 14 15 16 17 18 19 20 21 22 23 24 25 26 27 28 29 30 31 32 33 34 35 36 37 38 39 40 41 42 43 44 45 46 47 48 49 50
220
AXUS43 KLBF 200010
MISLBF


WESTERN AND NORTH CENTRAL NEBRASKA HOURLY WEATHER ROUNDUP
NATIONAL WEATHER SERVICE NORTH PLATTE NE
600 PM CST THU JAN 19 2017

NOTE: "FAIR" INDICATES FEW OR NO CLOUDS BELOW 12,000 FEET WITH NO
SIGNIFICANT WEATHER AND/OR OBSTRUCTIONS TO VISIBILITY.

NOTE: STATIONS NOT REPORTING VARIABLES SUCH AS SKY/WEATHER OR
PRESSURE ARE PROVIDED BY RAWS AND APRS NETWORKS AND ARE NOT UNDER
NATIONAL WEATHER SERVICE QUALITY CONTROL.

...OBSERVATIONS IN AND NEAR THE EASTERN PANHANDLE OF NEBRASKA...

CITY           SKY/WX    TMP DP  RH WIND       PRES   REMARKS
PINE RIDGE     CLEAR     36  28  73 W5        29.47R WCI  32
CHADRON        CLEAR     35  27  72 W7        29.49R WCI  29
ALLIANCE       CLEAR     41  24  51 SW5       29.48S
SIDNEY         CLEAR     36  26  67 S8        29.51R WCI  30
$$

...OBSERVATIONS IN NORTHERN NEBRASKA AND FAR SOUTHERN SOUTH DAKOTA...

CITY           SKY/WX    TMP DP  RH WIND       PRES   REMARKS
WINNER         FAIR      40  34  79 S8        29.49S WCI  34
VALENTINE      CLEAR     41  30  65 S15       29.48R
THEDFORD       CLOUDY    38  36  93 S5        29.53S WCI  34
AINSWORTH      CLOUDY    38  37  97 S15       29.50F WCI  29
O`NEILL        CLOUDY    41  41  99 S10       29.56F FOG
ORD            CLOUDY    40  38  93 SE6       29.57F FOG
BROKEN BOW     CLOUDY    41  38  89 S9        29.55F
VALENTINE NWR    N/A     42  33  69 S12         N/A
BUTTE            N/A     40  39  95 SE9         N/A  WCI  34
HALSEY           N/A     37  36  97 S7G17       N/A  WCI  31
SARGENT          N/A     40  30  67 CALM        N/A
CHAMBERS         N/A     40  39  98 S3          N/A
EWING            N/A     40  39  97 S5          N/A
$$

...OBSERVATIONS IN SOUTHWEST NEBRASKA AND FAR NORTHEAST COLORADO...

CITY           SKY/WX    TMP DP  RH WIND       PRES   REMARKS
WRAY           FAIR      39  30  70 SE3       29.53R
HOLYOKE        FAIR      37  30  75 SE6       29.52S WCI  33
IMPERIAL       FOG       35  34  96 SE10      29.54S VSB 1/4 WCI  27
OGALLALA       CLEAR     39  32  76 CALM      29.52S
NORTH PLATTE   CLOUDY    38  37  97 S8        29.55F WCI  32
MCCOOK         CLOUDY    36  36 100 CALM      29.56F FOG
LEXINGTON      CLOUDY    41  39  94 SE5       29.57F FOG
STAPLETON        N/A     36  35  96 CALM        N/A
GOTHENBURG       N/A     41  37  84 CALM        N/A
CALLAWAY         N/A     38  37  97 SW12        N/A  WCI  30
$$

...OBSERVATIONS IN CENTRAL LINCOLN COUNTY AREA...

CITY           SKY/WX    TMP DP  RH WIND       PRES   REMARKS
N.P. AIRPORT   CLOUDY    38  37  97 S8        29.55F WCI  32
N.P. DOWNTOWN    N/A     37  36  96 SE3         N/A
N.P. SOUTHEAST   N/A     37  36  95 S6          N/A  WCI  32
N.P. HILLCREST   N/A     37  37 100 S6          N/A  WCI  32
$$

...SOME OBSERVATIONS FROM AROUND THE REGION...

CITY           SKY/WX    TMP DP  RH WIND       PRES   REMARKS
LARAMIE        CLOUDY    24  18  77 NE7       29.59R WCI  16
CHEYENNE       CLEAR     43  16  33 W7        29.53S
DENVER         PTCLDY    40  24  53 E12       29.50F WCI  33
AKRON          CLEAR     41  24  51 S3        29.51S
SCOTTSBLUFF    CLEAR     43  24  47 NW7       29.50R
RAPID CITY     CLOUDY    35  25  66 W3        29.45S
BISMARCK       CLOUDY    18  14  84 SE7       29.49S WCI   9
PIERRE         CLOUDY    21  18  88 N3        29.48S
SIOUX FALLS    FOG       37  37 100 SE10      29.64S VSB 1/2 WCI  30
OMAHA          CLOUDY    41  37  86 SE3       29.66S FOG
GRAND ISLAND   CLOUDY    40  40 100 S3        29.62S
KANSAS CITY    CLOUDY    47  43  86 S5        29.64F
WICHITA        CLOUDY    48  44  86 E9        29.59S
OKLAHOMA CITY  PTCLDY    53  46  77 S12       29.55S
DALLAS         PTCLDY    62  53  72 S12       29.60S
AMARILLO       CLEAR     56  24  29 NE5       29.56R
DODGE CITY     CLOUDY    44  38  79 E3        29.56S
HAYS           CLOUDY    44  42  93 NE5       29.59S
GOODLAND       CLOUDY    36  35  96 SE7       29.53S WCI  30
$$




USA.gov is the U.S. government's official web portal to all federal, state and local government web resources and services.